Weather History for Creston, IA

Change the Weather History Date:

Wednesday, October 12, 2011

  Actual Average Record
Temperature  
Mean Temperature 58 °F -  
Max Temperature 64 °F 66 °F 86 °F (1956)
Min Temperature 53 °F 42 °F 28 °F (1959)
Degree Days  
Heating Degree Days 6    
Growing Degree Days 8 (Base 50)    
Moisture  
Dew Point 54 °F    
Average Humidity 84    
Maximum Humidity 94    
Minimum Humidity 72    
Precipitation  
Precipitation 0.08 in - - ()
Sea Level Pressure  
Sea Level Pressure 29.73 in    
Wind  
Wind Speed 6 mph (SW)    
Max Wind Speed 15 mph    
Max Gust Speed 20 mph    
Visibility 8 miles    
Events Rain    
Averages and records for this station are not official NWS values.
T = Trace of Precipitation, MM = Missing Value Source: NWS Daily Summary

Daily Weather History Graph

Daily Weather History Graph

Search for Another Location

Airport:

Trip Planner

Search our weather history database for the weather conditions in past years. The results will help you decide how hot, cold, wet, or windy it might be!

Date:

Astronomy

Oct. 12, 2011 Rise Set
Actual Time 7:25 AM CDT 6:41 PM CDT
Civil Twilight 6:57 AM CDT 7:09 PM CDT
Nautical Twilight 6:25 AM CDT 7:41 PM CDT
Astronomical Twilight 5:54 AM CDT 8:13 PM CDT
Moon 6:43 PM CDT (10/12) 8:01 AM CDT (10/12)
Length of Visible Light 12h 11m
Length of Day
11h 16m
Full, 100% of the Moon is Illuminated
Oct 12
Full
Oct 19
Last Quarter
Oct 26
New
Nov 2
First Quarter
Nov 10
Full

Hourly Weather History & Observations

Time (CDT) Temp. Dew Point Humidity Pressure Visibility Wind Dir Wind Speed Gust Speed Precip Events Conditions
12:15 AM 57.2 °F 48.2 °F 72% 29.80 in 10.0 mi SE 4.6 mph - N/A   Clear
12:35 AM 57.2 °F 48.2 °F 72% 29.80 in 10.0 mi SE 6.9 mph - N/A   Clear
12:55 AM 57.2 °F 48.2 °F 72% 29.79 in 10.0 mi SE 5.8 mph - N/A   Clear
1:15 AM 57.2 °F 50.0 °F 77% 29.79 in 10.0 mi SE 6.9 mph - N/A   Clear
1:35 AM 57.2 °F 51.8 °F 82% 29.79 in 10.0 mi SE 5.8 mph - N/A   Clear
1:55 AM 57.2 °F 51.8 °F 82% 29.79 in 10.0 mi SSE 5.8 mph - N/A   Clear
2:35 AM 55.4 °F 51.8 °F 88% 29.78 in 10.0 mi SE 5.8 mph - N/A   Clear
2:55 AM 57.2 °F 51.8 °F 82% 29.77 in 10.0 mi SE 5.8 mph - N/A   Clear
3:15 AM 55.4 °F 51.8 °F 88% 29.76 in 10.0 mi SE 6.9 mph - N/A   Clear
3:35 AM 57.2 °F 51.8 °F 82% 29.76 in 10.0 mi SE 5.8 mph - N/A   Clear
3:55 AM 57.2 °F 53.6 °F 88% 29.76 in 10.0 mi SSE 6.9 mph - N/A   Scattered Clouds
4:15 AM 59.0 °F 53.6 °F 82% 29.76 in 10.0 mi SSE 5.8 mph - N/A   Mostly Cloudy
4:35 AM 57.2 °F 53.6 °F 88% 29.75 in 10.0 mi SSE 5.8 mph - N/A   Scattered Clouds
4:55 AM 57.2 °F 53.6 °F 88% 29.75 in 10.0 mi SSE 5.8 mph - N/A   Scattered Clouds
5:15 AM 57.2 °F 53.6 °F 88% 29.75 in 10.0 mi SSE 5.8 mph - N/A   Mostly Cloudy
5:35 AM 57.2 °F 53.6 °F 88% 29.75 in 10.0 mi SSE 6.9 mph - N/A   Mostly Cloudy
5:55 AM 57.2 °F 53.6 °F 88% 29.74 in 10.0 mi South 6.9 mph - N/A   Scattered Clouds
6:15 AM 57.2 °F 55.4 °F 94% 29.73 in 10.0 mi SSE 8.1 mph - N/A   Clear
6:35 AM 57.2 °F 53.6 °F 88% 29.74 in 7.0 mi South 5.8 mph - N/A   Clear
6:55 AM 55.4 °F 53.6 °F 94% 29.74 in 5.0 mi South 5.8 mph - N/A   Clear
7:15 AM 53.6 °F 51.8 °F 94% 29.74 in 2.5 mi East 3.5 mph - N/A   Clear
7:35 AM 53.6 °F 51.8 °F 94% 29.74 in 2.5 mi SW 3.5 mph - N/A   Scattered Clouds
7:55 AM 53.6 °F 51.8 °F 94% 29.73 in 1.5 mi SSW 3.5 mph - N/A   Mostly Cloudy
8:15 AM 55.4 °F 53.6 °F 94% 29.73 in 2.5 mi South 3.5 mph - N/A   Clear
8:35 AM 57.2 °F 55.4 °F 94% 29.73 in 2.5 mi South 4.6 mph - N/A   Clear
8:55 AM 57.2 °F 53.6 °F 88% 29.72 in 2.0 mi South 3.5 mph - N/A   Clear
9:15 AM 57.2 °F 55.4 °F 94% 29.72 in 2.5 mi South 3.5 mph - N/A   Clear
9:35 AM 60.8 °F 57.2 °F 88% 29.71 in 5.0 mi Calm Calm - N/A   Clear
9:55 AM 62.6 °F 57.2 °F 82% 29.71 in 7.0 mi Calm Calm - N/A   Clear
10:15 AM 62.6 °F 57.2 °F 82% 29.71 in 7.0 mi West 3.5 mph - N/A   Scattered Clouds
10:35 AM 62.6 °F 55.4 °F 77% 29.72 in 10.0 mi Calm Calm - N/A   Mostly Cloudy
10:55 AM 62.6 °F 57.2 °F 82% 29.72 in 7.0 mi Calm Calm - N/A   Overcast
11:15 AM 62.6 °F 57.2 °F 82% 29.73 in 7.0 mi SSW 5.8 mph - N/A Rain Rain
11:35 AM 60.8 °F 57.2 °F 88% 29.73 in 5.0 mi SSW 4.6 mph - 0.01 in Rain Rain
11:55 AM 60.8 °F 57.2 °F 88% 29.72 in 5.0 mi WSW 4.6 mph - 0.03 in Rain Rain
12:15 PM 60.8 °F 57.2 °F 88% 29.72 in 5.0 mi Calm Calm - 0.02 in Rain Rain
12:35 PM 60.8 °F 57.2 °F 88% 29.72 in 5.0 mi West 3.5 mph - 0.03 in Rain Rain
12:55 PM 62.6 °F 57.2 °F 82% 29.72 in 7.0 mi WSW 5.8 mph - 0.03 in   Overcast
1:15 PM 62.6 °F 57.2 °F 82% 29.70 in 7.0 mi WSW 6.9 mph - N/A   Overcast
1:35 PM 60.8 °F 57.2 °F 88% 29.70 in 7.0 mi WSW 5.8 mph - N/A   Overcast
2:15 PM 62.6 °F 57.2 °F 82% 29.68 in 10.0 mi West 8.1 mph - N/A   Mostly Cloudy
2:35 PM 64.4 °F 57.2 °F 77% 29.67 in 10.0 mi WNW 9.2 mph - N/A   Mostly Cloudy
2:55 PM 64.4 °F 55.4 °F 73% 29.67 in 10.0 mi WNW 12.7 mph - N/A   Scattered Clouds
3:15 PM 64.4 °F 55.4 °F 73% 29.67 in 10.0 mi WNW 9.2 mph - N/A   Mostly Cloudy
3:35 PM 64.4 °F 55.4 °F 73% 29.68 in 10.0 mi WNW 10.4 mph - N/A   Mostly Cloudy
4:15 PM 60.8 °F 55.4 °F 82% 29.68 in 7.0 mi NW 6.9 mph - N/A Rain Rain
4:35 PM 60.8 °F 55.4 °F 82% 29.68 in 7.0 mi NW 9.2 mph - N/A Rain Light Rain
4:55 PM 60.8 °F 55.4 °F 82% 29.67 in 10.0 mi NNW 4.6 mph - N/A   Scattered Clouds
5:15 PM 60.8 °F 55.4 °F 82% 29.67 in 10.0 mi North 5.8 mph - N/A   Clear
5:35 PM 62.6 °F 55.4 °F 77% 29.68 in 10.0 mi NNW 4.6 mph - N/A   Scattered Clouds
5:55 PM 62.6 °F 55.4 °F 77% 29.68 in 10.0 mi NNW 5.8 mph - N/A   Mostly Cloudy
6:15 PM 62.6 °F 55.4 °F 77% 29.69 in 10.0 mi NW 3.5 mph - N/A   Mostly Cloudy
6:35 PM 60.8 °F 53.6 °F 77% 29.69 in 10.0 mi NW 4.6 mph - N/A   Mostly Cloudy
6:55 PM 59.0 °F 53.6 °F 82% 29.70 in 10.0 mi WNW 4.6 mph - N/A   Scattered Clouds
7:15 PM 57.2 °F 51.8 °F 82% 29.70 in 10.0 mi WNW 6.9 mph - N/A   Scattered Clouds
7:35 PM 57.2 °F 53.6 °F 88% 29.71 in 10.0 mi West 9.2 mph - N/A   Scattered Clouds
7:55 PM 59.0 °F 53.6 °F 82% 29.71 in 10.0 mi West 12.7 mph 18.4 mph N/A   Light Drizzle
8:15 PM 57.2 °F 53.6 °F 88% 29.72 in 10.0 mi West 13.8 mph - 0.01 in Rain Light Rain
8:35 PM 55.4 °F 51.8 °F 88% 29.72 in 10.0 mi West 8.1 mph - 0.01 in Rain Light Rain
8:55 PM 55.4 °F 51.8 °F 88% 29.72 in 10.0 mi West 9.2 mph - 0.01 in   Light Drizzle
9:15 PM 55.4 °F 51.8 °F 88% 29.72 in 10.0 mi WNW 8.1 mph - 0.01 in Rain Light Rain
9:35 PM 55.4 °F 51.8 °F 88% 29.73 in 10.0 mi NW 15.0 mph 19.6 mph 0.01 in Rain Light Rain
9:55 PM 55.4 °F 51.8 °F 88% 29.73 in 10.0 mi NW 13.8 mph 19.6 mph 0.02 in Rain Rain
10:15 PM 55.4 °F 51.8 °F 88% 29.73 in 10.0 mi NW 10.4 mph - 0.02 in Rain Light Rain
10:35 PM 55.4 °F 51.8 °F 88% 29.73 in 10.0 mi WNW 12.7 mph 19.6 mph 0.02 in   Light Drizzle
10:55 PM 55.4 °F 51.8 °F 88% 29.72 in 10.0 mi WNW 10.4 mph - 0.02 in   Scattered Clouds
11:15 PM 55.4 °F 51.8 °F 88% 29.72 in 10.0 mi West 10.4 mph - N/A   Scattered Clouds
11:35 PM 53.6 °F 51.8 °F 94% 29.72 in 10.0 mi WNW 9.2 mph - N/A   Scattered Clouds